When you browse on this site, cookies collect data to enhance your experience and personalize the content and advertising you see.
Visit our Privacy Policy to learn more. By continuing to use the site, you agree to this use of cookies and data.
  • En España
  • Lista de países
  • Para 7 días
  • Temperatura del agua
  • El tiempo en el mapa
  • Informadores
  • user-avatar
    Iniciar sesión

    Tiempo cada hora Podgorica

    Hoy, 1 Junio, Lunes

    Tiempo Temperatura Precipitaciones Viento Presión Humedad
    00:00 +13°C° 0.3 mm 2 mps 753 mmHg 89%
    01:00 +13°C° 0 mm 2 mps 753 mmHg 88%
    02:00 +13°C° 0.1 mm 2 mps 753 mmHg 88%
    03:00 +12°C° 0.1 mm 2 mps 753 mmHg 88%
    04:00 +12°C° 0.1 mm 2 mps 753 mmHg 88%
    05:00 +14°C° 0 mm 2 mps 753 mmHg 84%
    06:00 +15°C° 0 mm 2 mps 753 mmHg 80%
    07:00 +16°C° 0 mm 1 mps 753 mmHg 77%
    08:00 +19°C° 0 mm 1 mps 753 mmHg 70%
    09:00 +20°C° 0 mm 1 mps 753 mmHg 63%
    10:00 +22°C° 0 mm 1 mps 753 mmHg 56%
    11:00 +22°C° 0.1 mm 1 mps 753 mmHg 56%
    12:00 +21°C° 0.1 mm 2 mps 753 mmHg 55%
    13:00 +23°C° 0.1 mm 2 mps 752 mmHg 55%
    14:00 +23°C° 0.1 mm 2 mps 752 mmHg 56%
    15:00 +21°C° 0.1 mm 2 mps 752 mmHg 56%
    16:00 +21°C° 0.1 mm 2 mps 752 mmHg 57%
    17:00 +20°C° 0 mm 2 mps 752 mmHg 64%
    18:00 +18°C° 0 mm 2 mps 752 mmHg 71%
    19:00 +17°C° 0 mm 2 mps 752 mmHg 77%
    20:00 +16°C° 0 mm 2 mps 753 mmHg 78%
    21:00 +14°C° 0 mm 3 mps 753 mmHg 79%
    22:00 +13°C° 0 mm 3 mps 753 mmHg 80%
    23:00 +13°C° 0 mm 3 mps 753 mmHg 80%

    Mañana, 2 Junio, Martes

    Tiempo Temperatura Precipitaciones Viento Presión Humedad
    00:00 +13°C° 0 mm 3 mps 753 mmHg 80%
    01:00 +13°C° 0 mm 3 mps 753 mmHg 80%
    02:00 +12°C° 0 mm 3 mps 752 mmHg 80%
    03:00 +12°C° 0 mm 3 mps 752 mmHg 80%
    04:00 +12°C° 0 mm 3 mps 752 mmHg 80%
    05:00 +15°C° 0 mm 2 mps 752 mmHg 76%
    06:00 +17°C° 0 mm 2 mps 752 mmHg 72%
    07:00 +19°C° 0 mm 1 mps 751 mmHg 68%
    08:00 +21°C° 0 mm 1 mps 751 mmHg 64%
    09:00 +22°C° 0 mm 1 mps 751 mmHg 60%
    10:00 +23°C° 0 mm 1 mps 751 mmHg 57%
    11:00 +23°C° 0.3 mm 2 mps 751 mmHg 58%
    12:00 +24°C° 0.3 mm 2 mps 751 mmHg 60%
    13:00 +24°C° 0.3 mm 2 mps 751 mmHg 62%
    14:00 +23°C° 0.7 mm 2 mps 751 mmHg 65%
    15:00 +23°C° 0.7 mm 2 mps 751 mmHg 68%
    16:00 +21°C° 0.7 mm 2 mps 750 mmHg 71%
    17:00 +20°C° 0.4 mm 2 mps 750 mmHg 75%
    18:00 +18°C° 0.4 mm 2 mps 750 mmHg 79%
    19:00 +17°C° 0.4 mm 2 mps 750 mmHg 84%
    20:00 +16°C° 0 mm 2 mps 750 mmHg 84%
    21:00 +15°C° 0 mm 2 mps 751 mmHg 84%
    22:00 +13°C° 0 mm 3 mps 751 mmHg 84%
    23:00 +12°C° 0 mm 3 mps 751 mmHg 83%

    Pasado mañana, 3 Junio, Miércoles

    Tiempo Temperatura Precipitaciones Viento Presión Humedad
    00:00 +12°C° 0 mm 3 mps 751 mmHg 82%
    01:00 +11°C° 0 mm 3 mps 751 mmHg 81%
    02:00 +11°C° 0 mm 3 mps 751 mmHg 81%
    03:00 +11°C° 0 mm 3 mps 751 mmHg 80%
    04:00 +11°C° 0 mm 3 mps 750 mmHg 80%
    05:00 +13°C° 0 mm 2 mps 750 mmHg 76%
    06:00 +15°C° 0 mm 2 mps 750 mmHg 72%
    07:00 +18°C° 0 mm 1 mps 750 mmHg 68%
    08:00 +20°C° 0 mm 1 mps 750 mmHg 62%
    09:00 +21°C° 0 mm 1 mps 750 mmHg 57%
    10:00 +22°C° 0 mm 1 mps 750 mmHg 51%
    11:00 +23°C° 0 mm 2 mps 750 mmHg 52%
    12:00 +23°C° 0 mm 2 mps 749 mmHg 52%
    13:00 +23°C° 0 mm 2 mps 749 mmHg 53%
    14:00 +23°C° 0 mm 2 mps 749 mmHg 56%
    15:00 +23°C° 0 mm 2 mps 749 mmHg 58%
    16:00 +23°C° 0 mm 2 mps 749 mmHg 61%
    17:00 +20°C° 0 mm 2 mps 749 mmHg 69%
    18:00 +20°C° 0 mm 1 mps 749 mmHg 77%
    19:00 +18°C° 0 mm 1 mps 749 mmHg 85%
    20:00 +16°C° 0 mm 1 mps 750 mmHg 86%
    21:00 +16°C° 0 mm 1 mps 750 mmHg 86%
    22:00 +14°C° 0 mm 0 mps 750 mmHg 87%
    23:00 +15°C° 0 mm 1 mps 750 mmHg 87%

    4 Junio, Jueves

    Tiempo Temperatura Precipitaciones Viento Presión Humedad
    00:00 +14°C° 0 mm 1 mps 750 mmHg 88%
    01:00 +14°C° 0 mm 1 mps 750 mmHg 88%
    02:00 +14°C° 0 mm 1 mps 750 mmHg 88%
    03:00 +14°C° 0 mm 1 mps 750 mmHg 88%
    04:00 +14°C° 0 mm 1 mps 750 mmHg 88%
    05:00 +15°C° 0 mm 1 mps 750 mmHg 84%
    06:00 +18°C° 0 mm 1 mps 750 mmHg 79%
    07:00 +20°C° 0 mm 1 mps 750 mmHg 75%
    08:00 +20°C° 0 mm 2 mps 750 mmHg 70%
    09:00 +21°C° 0 mm 2 mps 750 mmHg 65%
    10:00 +22°C° 0 mm 3 mps 750 mmHg 61%
    11:00 +24°C° 0.1 mm 3 mps 750 mmHg 62%
    12:00 +24°C° 0.1 mm 3 mps 750 mmHg 63%
    13:00 +23°C° 0.1 mm 4 mps 749 mmHg 64%
    14:00 +23°C° 0.1 mm 4 mps 749 mmHg 67%
    15:00 +23°C° 0.1 mm 4 mps 749 mmHg 69%
    16:00 +22°C° 0.1 mm 5 mps 749 mmHg 71%
    17:00 +21°C° 0.2 mm 4 mps 749 mmHg 78%
    18:00 +20°C° 0.2 mm 4 mps 749 mmHg 85%
    19:00 +19°C° 0.2 mm 3 mps 749 mmHg 92%
    20:00 +18°C° 0.1 mm 3 mps 749 mmHg 92%
    21:00 +18°C° 0.1 mm 3 mps 750 mmHg 92%
    22:00 +17°C° 0.1 mm 2 mps 750 mmHg 92%
    23:00 +17°C° 0 mm 2 mps 750 mmHg 91%

    5 Junio, Viernes

    Tiempo Temperatura Precipitaciones Viento Presión Humedad
    00:00 +17°C° 0 mm 2 mps 749 mmHg 90%
    01:00 +16°C° 0 mm 2 mps 749 mmHg 89%
    02:00 +16°C° 0 mm 2 mps 749 mmHg 86%
    03:00 +17°C° 0 mm 2 mps 749 mmHg 83%
    04:00 +18°C° 0 mm 1 mps 749 mmHg 80%
    05:00 +17°C° 0.1 mm 2 mps 749 mmHg 80%
    06:00 +17°C° 0.1 mm 2 mps 749 mmHg 80%
    07:00 +18°C° 0.1 mm 2 mps 749 mmHg 79%
    08:00 +17°C° 2.6 mm 3 mps 748 mmHg 85%
    09:00 +17°C° 2.6 mm 4 mps 748 mmHg 90%
    10:00 +15°C° 2.6 mm 4 mps 748 mmHg 95%
    11:00 +15°C° 6.2 mm 5 mps 747 mmHg 96%
    12:00 +15°C° 6.2 mm 5 mps 747 mmHg 97%
    13:00 +15°C° 6.2 mm 5 mps 747 mmHg 97%
    14:00 +15°C° 4.9 mm 5 mps 746 mmHg 97%
    15:00 +15°C° 4.9 mm 5 mps 746 mmHg 97%
    16:00 +15°C° 4.9 mm 4 mps 746 mmHg 96%
    17:00 +15°C° 3.7 mm 4 mps 746 mmHg 96%
    18:00 +15°C° 3.7 mm 4 mps 746 mmHg 97%
    19:00 +15°C° 3.7 mm 4 mps 746 mmHg 97%
    20:00 +15°C° 1.8 mm 4 mps 746 mmHg 96%
    21:00 +16°C° 1.8 mm 3 mps 747 mmHg 96%
    22:00 +16°C° 1.8 mm 3 mps 747 mmHg 96%
    23:00 +16°C° 1.6 mm 2 mps 747 mmHg 96%

    6 Junio, Sábado

    Tiempo Temperatura Precipitaciones Viento Presión Humedad
    00:00 +16°C° 1.6 mm 2 mps 747 mmHg 97%
    01:00 +16°C° 1.6 mm 1 mps 747 mmHg 98%
    02:00 +16°C° 1 mm 1 mps 748 mmHg 98%
    03:00 +16°C° 1 mm 1 mps 748 mmHg 98%
    04:00 +16°C° 1 mm 1 mps 748 mmHg 97%
    05:00 +18°C° 0.6 mm 1 mps 748 mmHg 95%
    06:00 +19°C° 0.6 mm 1 mps 749 mmHg 93%
    07:00 +19°C° 0.6 mm 1 mps 749 mmHg 90%
    08:00 +20°C° 0.4 mm 1 mps 750 mmHg 86%
    09:00 +21°C° 0.4 mm 1 mps 750 mmHg 82%
    10:00 +22°C° 0.4 mm 1 mps 750 mmHg 78%
    11:00 +23°C° 0.4 mm 2 mps 750 mmHg 77%
    12:00 +23°C° 0.4 mm 2 mps 750 mmHg 75%
    13:00 +23°C° 0.4 mm 2 mps 750 mmHg 73%
    14:00 +23°C° 0.6 mm 2 mps 750 mmHg 75%
    15:00 +23°C° 0.6 mm 1 mps 750 mmHg 76%
    16:00 +23°C° 0.6 mm 1 mps 750 mmHg 77%
    17:00 +22°C° 0.3 mm 1 mps 751 mmHg 81%
    18:00 +20°C° 0.3 mm 1 mps 751 mmHg 86%
    19:00 +17°C° 0.3 mm 0 mps 751 mmHg 90%
    20:00 +17°C° 0 mm 0 mps 752 mmHg 90%
    21:00 +18°C° 0 mm 1 mps 752 mmHg 90%
    22:00 +18°C° 0 mm 1 mps 753 mmHg 90%
    23:00 +16°C° 0 mm 1 mps 753 mmHg 89%
    Mostrar más